This is the latest recevied weather packets stored in our database for station/object KM4KBD. If no packets are shown the sender has not sent any weather packets the latest 10 day(s).
| Time | Temp. | Humidity | Pressure | Rain* | Wind** | Luminosity | Snow |
|---|---|---|---|---|---|---|---|
| 1777329525 | 25.56° C | 45% | 1018.3 hPa | 0 mm | - | 111 W/m² | - |
| 1777329222 | 25.56° C | 45% | 1018.5 hPa | 0 mm | - | 124 W/m² | - |
| 1777328919 | 25.56° C | 45% | 1018.4 hPa | 0 mm | - | 130 W/m² | - |
| 1777328617 | 26.11° C | 46% | 1018.5 hPa | 0 mm | - | 131 W/m² | - |
| 1777328315 | 25.56° C | 45% | 1018.5 hPa | 0 mm | - | 137 W/m² | - |
| 1777328013 | 25.56° C | 45% | 1018.6 hPa | 0 mm | - | 146 W/m² | - |
| 1777327712 | 25.56° C | 45% | 1018.5 hPa | 0 mm | - | 149 W/m² | - |
| 1777327408 | 26.11° C | 44% | 1018.7 hPa | 0 mm | - | 155 W/m² | - |
| 1777327106 | 26.11° C | 45% | 1018.6 hPa | 0 mm | - | 159 W/m² | - |
| 1777326802 | 26.11° C | 44% | 1018.6 hPa | 0 mm | - | 166 W/m² | - |
| 1777326500 | 26.11° C | 45% | 1018.8 hPa | 0 mm | - | 175 W/m² | - |
| 1777326197 | 26.11° C | 45% | 1019 hPa | 0 mm | - | 191 W/m² | - |
| 1777325895 | 26.67° C | 44% | 1018.9 hPa | 0 mm | - | 202 W/m² | - |
| 1777325593 | 26.67° C | 45% | 1018.9 hPa | 0 mm | - | 208 W/m² | - |
| 1777325290 | 26.67° C | 45% | 1019.2 hPa | 0 mm | - | 207 W/m² | - |
| 1777324988 | 26.67° C | 46% | 1019 hPa | 0 mm | - | 209 W/m² | - |
| 1777324685 | 26.67° C | 46% | 1019 hPa | 0 mm | - | 231 W/m² | - |
| 1777324382 | 27.22° C | 45% | 1019.1 hPa | 0 mm | - | 262 W/m² | - |
| 1777324079 | 27.22° C | 45% | 1019.4 hPa | 0 mm | - | 269 W/m² | - |
| 1777323777 | 27.22° C | 45% | 1019.4 hPa | 0 mm | - | 288 W/m² | - |
| 1777323474 | 27.22° C | 44% | 1019.3 hPa | 0 mm | - | 313 W/m² | - |
| 1777323171 | 27.22° C | 45% | 1019.6 hPa | 0 mm | - | 305 W/m² | - |
| 1777322869 | 27.22° C | 44% | 1019.4 hPa | 0 mm | - | 284 W/m² | - |
| 1777322567 | 27.22° C | 43% | 1019.6 hPa | 0 mm | - | 316 W/m² | - |
| 1777322263 | 26.67° C | 43% | 1019.6 hPa | 0 mm | - | 331 W/m² | - |
* Rain latest hour (hover to see other rain measurements)
** Current wind speed in m/s (hover to see current wind gust speed)